Location: Paderno d�Adda
(45.6667°N, 9.4333°E)
Time: 13:13:18
(UTC+00:00)

Cosmos 1943 - Pass Details

Date: 19 September 2020
Orbit: 833 x 851 km, 71.0° (Epoch: 30 October)

Event Time Altitude Azimuth Distance (km) Brightness Sun altitude
Rises 17:47:00 0° 335° (NNW) 3,400 6.8 -4.7°
Reaches altitude 10° 17:49:28 10° 337° (NNW) 2,464 6.1 -5.1°
Maximum altitude 17:55:07 72° 62° (ENE) 887 3.2 -6.1°
Drops below altitude 10° 18:00:45 10° 147° (SSE) 2,461 5.2 -7.0°
Sets 18:03:13 0° 149° (SSE) 3,394 6.0 -7.5°
